Weather History for KMLI - February, 2011

Change the Weather History Date:

Wednesday, February 16, 2011

  Actual Average Record
Temperature  
Mean Temperature 42 °F 27 °F  
Max Temperature 52 °F 36 °F 60 °F (1921)
Min Temperature 32 °F 19 °F -14 °F (1958)
Degree Days  
Heating Degree Days 23 38  
Month to date heating degree days 726 641  
Since 1 July heating degree days 4462 4375  
Cooling Degree Days 0 0  
Month to date cooling degree days 0 0  
Year to date cooling degree days 0 0  
Moisture  
Dew Point 40 °F    
Average Humidity 83    
Maximum Humidity 96    
Minimum Humidity 70    
Precipitation  
Precipitation 0.00 in 0.05 in 2.90 in (1883)
Month to date precipitation 0.76 0.78  
Year to date precipitation 1.66 2.27  
Snow  
Snow 0.00 in 0.20 in - ()
Month to date snowfall 17.3 4.3  
Since 1 July snowfall 43.2 24.2  
Snow Depth -    
Sea Level Pressure  
Sea Level Pressure 29.87 in    
Wind  
Wind Speed 5 mph (South)    
Max Wind Speed 12 mph    
Max Gust Speed 16 mph    
Visibility 6 miles    
Events Fog    
T = Trace of Precipitation, MM = Missing Value Source: NWS Daily Summary

Daily Weather History Graph

Daily Weather History Graph

Search for Another Location

Airport or City:

Trip Planner

Search our weather history database for the weather conditions in past years. The results will help you decide how hot, cold, wet, or windy it might be!

Date:

Astronomy

Feb. 16, 2011 Rise Set
Actual Time 6:56 AM CST 5:36 PM CST
Civil Twilight 6:27 AM CST 6:05 PM CST
Nautical Twilight 5:55 AM CST 6:37 PM CST
Astronomical Twilight 5:23 AM CST 7:09 PM CST
Moon 3:58 PM CST (2/16) 5:33 AM CST (2/16)
Length of Visible Light 11h 37m
Length of Day
10h 40m
Waxing Gibbous, 96% of the Moon is Illuminated
Feb 16
Waxing Gibbous
Feb 18
Full
Feb 24
Last Quarter
Mar 4
New
Mar 12
First Quarter

Hourly Weather History & Observations

Time (CST) Temp. Windchill Dew Point Humidity Pressure Visibility Wind Dir Wind Speed Gust Speed Precip Events Conditions
12:30 AM 42.8 °F 38.6 °F 33.8 °F 70% 29.96 in 10.0 mi SW 6.9 mph - N/A   Overcast
12:52 AM 41.0 °F 36.4 °F 33.1 °F 73% 29.98 in 10.0 mi SW 6.9 mph - N/A   Overcast
1:52 AM 42.1 °F 37.1 °F 33.1 °F 70% 29.96 in 10.0 mi SSW 8.1 mph - N/A   Overcast
2:52 AM 42.1 °F 37.1 °F 33.1 °F 70% 29.96 in 10.0 mi SSW 8.1 mph - N/A   Overcast
3:52 AM 41.0 °F 39.0 °F 33.1 °F 73% 29.96 in 10.0 mi West 3.5 mph - N/A   Overcast
4:22 AM 39.2 °F 35.9 °F 33.8 °F 81% 29.96 in 9.0 mi WSW 4.6 mph - N/A   Overcast
4:52 AM 39.9 °F 37.8 °F 34.0 °F 79% 29.98 in 9.0 mi SW 3.5 mph - N/A   Overcast
5:52 AM 39.2 °F - 37.4 °F 93% 29.95 in 4.0 mi Calm Calm - N/A   Scattered Clouds
6:52 AM 35.1 °F - 32.0 °F 89% 29.98 in 5.0 mi Calm Calm - N/A   Clear
7:52 AM 34.0 °F 31.0 °F 32.0 °F 92% 29.98 in 5.0 mi SE 3.5 mph - N/A   Clear
8:52 AM 41.0 °F - 34.0 °F 76% 29.99 in 7.0 mi Calm Calm - N/A   Clear
9:52 AM 43.0 °F 40.3 °F 36.0 °F 76% 29.99 in 10.0 mi SW 4.6 mph - N/A   Clear
10:52 AM 46.0 °F 41.9 °F 39.0 °F 76% 29.97 in 9.0 mi SW 8.1 mph - N/A   Clear
11:52 AM 48.0 °F - 39.9 °F 74% 29.93 in 9.0 mi SSE 8.1 mph - N/A   Clear
12:52 PM 50.0 °F - 43.0 °F 77% 29.93 in 8.0 mi SSW 6.9 mph - N/A   Clear
1:52 PM 50.0 °F - 45.0 °F 83% 29.91 in 6.0 mi South 8.1 mph - N/A   Haze
2:52 PM 51.1 °F - 45.0 °F 80% 29.89 in 6.0 mi South 6.9 mph - N/A   Haze
3:52 PM 51.1 °F - 46.0 °F 83% 29.87 in 6.0 mi SSE 4.6 mph - N/A   Haze
4:52 PM 48.9 °F - 45.0 °F 86% 29.86 in 5.0 mi ESE 4.6 mph - N/A   Scattered Clouds
5:18 PM 48.2 °F - 44.6 °F 87% 29.84 in 5.0 mi ESE 5.8 mph - N/A   Mostly Cloudy
5:52 PM 48.9 °F - 45.0 °F 86% 29.85 in 7.0 mi SSE 10.4 mph - N/A   Overcast
6:26 PM 48.2 °F - 44.6 °F 87% 29.83 in 7.0 mi SE 8.1 mph - N/A   Mostly Cloudy
6:52 PM 46.9 °F - 43.0 °F 86% 29.84 in 7.0 mi SE 8.1 mph - N/A   Mostly Cloudy
7:38 PM 46.4 °F - 42.8 °F 87% 29.81 in 6.0 mi Calm Calm - N/A   Scattered Clouds
7:52 PM 46.0 °F - 43.0 °F 89% 29.82 in 6.0 mi Calm Calm - N/A   Clear
8:52 PM 44.1 °F 40.8 °F 42.1 °F 93% 29.78 in 4.0 mi East 5.8 mph - N/A   Clear
9:25 PM 42.8 °F 40.1 °F 39.2 °F 87% 29.75 in 2.0 mi East 4.6 mph - N/A   Clear
9:52 PM 41.0 °F 36.4 °F 39.9 °F 96% 29.75 in 2.0 mi ENE 6.9 mph - N/A   Clear
10:19 PM 39.2 °F 35.9 °F 39.2 °F 100% 29.74 in 0.5 mi ESE 4.6 mph - N/A Fog Fog
10:39 PM 42.8 °F 41.1 °F 41.0 °F 93% 29.74 in 0.8 mi SSE 3.5 mph - N/A   Mostly Cloudy
10:41 PM 42.8 °F 41.1 °F 41.0 °F 93% 29.73 in 1.0 mi SSE 3.5 mph - N/A   Scattered Clouds
10:46 PM 44.6 °F 42.2 °F 42.8 °F 93% 29.73 in 2.0 mi SSE 4.6 mph - N/A   Partly Cloudy
10:52 PM 44.1 °F 40.8 °F 43.0 °F 96% 29.75 in 2.5 mi SSE 5.8 mph - N/A   Partly Cloudy
11:02 PM 44.6 °F - 42.8 °F 93% 29.74 in 3.0 mi Calm Calm - N/A   Partly Cloudy
11:52 PM 48.0 °F - 44.1 °F 86% 29.75 in 6.0 mi SSW 8.1 mph - N/A   Clear